www.pogodaiklimat.ru

Погода и климат >> Архив погоды >> Иран >> Керманшах


ПОГОДА в Керманшахе

  • Прогноз погоды в Керманшахе
  • Монитор погоды в Керманшахе

АРХИВ ПОГОДЫ в Керманшахе

Время (UTC), дата Ветер
(напр.,м/с)
 
Видим.   Явления Облачность Т
(С)
Тd
(С)
f
(%)
Тe
(С)
Тes
(С)
Комфортность P
(гПа)
Po
(гПа)
Тmin
(С)
Tmax
(С)
R
(мм)
R24
(мм)
S
(см)
06 16.08 В 2 10 км ясно +31.3 +4.3 18 +29 +40 жарко 1001.4 866.3
09 16.08 В 3 10 км ясно +37.6 -2.4 8 +34 +50 очень
жарко
999.3 864.5
12 16.08 З 4 15 км осадки на расстоянии 4/4 1500 м
[Cb calv]
+39.0 -2.8 7 +35 +39 очень
жарко
997.9 862.5
15 16.08 ЮЗ 3 15 км 4/1 1000 м
[Cu hum Ac As]
+34.6 +3.4 14 +32 +32 жарко 999.1 862.3 +39.7 666
18 16.08 З 4 8000 м пыль 3/0
[Ac trans]
+30.3 +8.3 25 +29 +29 жарко 998.3 863.3
21 16.08 С 2 10 км 4/0 2000 м
[Ac trans]
+28.2 +9.2 30 +28 +28 жарко 996.9 863.0
00 17.08 Ю 2 15 км ясно +22.5 +7.1 37 +23 +23 комфорт 997.8 862.8
03 17.08 штиль 0 15 км 4/0
[Ac cast Cc]
+21.0 +7.6 42 +22 +23 комфорт 999.4 863.0 +20.2
06 17.08 В 2 10 км 3/0
[Ac trans]
+31.2 +6.0 21 +30 +39 жарко 998.2 863.2
09 17.08 ЮВ 2 10 км 6/3 1350 м
[Cu med, cong Ac trans]
+37.7 -0.1 9 +34 +44 очень
жарко
996.1 862.0 666
12 17.08 Ю 9 10 км 8/5 1050 м
[Cb calv Ac As]
+37.4 -0.4 9 +34 +34 очень
жарко
995.2 860.0
15 17.08 СЗ 6 10 км 8/5 1050 м
[Cb calv Ac As]
+32.2 +5.3 19 +30 +30 жарко 997.5 860.8 +40.1
18 17.08 СЗ 2 10 км 4/0 2000 м
[Ac trans]
+28.3 +6.5 25 +27 +27 жарко 996.7 861.4
21 17.08 штиль 0 10 км ясно +23.7 +5.4 31 +24 +24 комфорт 997.0 862.0
00 18.08 штиль 0 10 км ясно +20.7 +4.6 35 +21 +21 комфорт 997.8 862.0
03 18.08 штиль 0 10 км ясно +19.9 +5.0 38 +20 +21 1001.1 862.8 +18.6
06 18.08 В 2 10 км ясно +32.2 -1.4 11 +29 +40 жарко 998.9 863.3
09 18.08 ЮВ 5 10 км 1/1 1350 м
[Cu hum]
+37.1 -1.0 9 +33 +42 жарко 998.2 862.8
12 18.08 ЮВ 6 10 км 5/5 1200 м
[Cb calv]
+39.0 -2.8 7 +35 +37 очень
жарко
997.7 862.1
15 18.08 В 7 10 км 5/3 1350 м
[Cu hum Ac trans]
+33.8 -0.9 11 +30 +30 жарко 1000.5 863.3 +40.1
18 18.08 З 6 10 км ясно +30.2 +4.1 19 +28 +28 жарко 1000.2 864.4
21 18.08 В 3 10 км ясно +23.1 +4.3 29 +23 +23 комфорт 1001.1 865.2
00 19.08 В 2 10 км ясно +19.8 +3.2 33 +21 +21 комфорт 1001.4 865.2
03 19.08 В 2 10 км ясно +17.8 +2.5 36 +18 +19 1004.7 867.0 +17.4
06 19.08 В 2 9000 м мгла 3/0
[Ci fib]
+30.0 +2.2 17 +28 +38 жарко 1003.8 867.5
09 19.08 В 2 10 км ясно +37.5 -4.4 7 +33 +52 опасность
солнечного
удара
1002.7 866.5
12 19.08 З 4 10 км 8/4 1200 м
[Cu Sc Ac und]
+36.6 -7.2 6 +32 +34 жарко 1002.4 865.3
15 19.08 З 2 10 км 6/3 1350 м
[Cu med, cong Ac und]
+36.4 -5.5 7 +32 +32 жарко 1003.0 865.5 +39.4 666
18 19.08 СЗ 6 10 км ясно +30.6 +2.5 17 +28 +28 жарко 1003.5 867.3
21 19.08 Ю 2 10 км ясно +24.6 +4.3 27 +24 +24 комфорт 1003.4 867.6
03 20.08 Ю 2 10 км ясно +18.0 +1.3 33 +19 +19 1006.2 868.4 +17.5 666
06 20.08 В 2 10 км ясно +30.8 +1.8 16 +28 +39 жарко 1005.6 869.4
09 20.08 В 2 10 км 3/3 1350 м
[Cu hum]
+37.8 -9.2 5 +33 +46 жарко 1004.1 868.0
12 20.08 З 2 10 км 6/5 1200 м
[Cb calv Ac trans]
+37.8 -9.1 5 +33 +38 жарко 1003.4 866.4
15 20.08 СЗ 2 10 км 5/0 2000 м
[Ac trans Ci sp]
+36.4 -14.2 3 +32 +32 жарко 1003.8 866.1 +39.7
18 20.08 СЗ 4 10 км 4/4 1350 м
[Sc diur, vesp]
+30.7 +1.6 16 +28 +28 жарко 1003.3 867.4
21 20.08 З 4 10 км 3/3 1350 м
[Cu hum]
+27.0 +1.8 20 +25 +25 комфорт 1002.5 867.4
00 21.08 ЮВ 2 10 км 6/0 2000 м
[Ac trans]
+21.6 +0.6 25 +21 +21 комфорт 1004.0 867.5
03 21.08 В 2 10 км 5/0 1500 м
[Ac trans]
+21.2 +2.2 28 +21 +21 комфорт 1004.9 868.0 +20.2
06 21.08 ЮВ 3 10 км 5/0
[Ac trans]
+31.7 -4.5 9 +28 +34 жарко 1005.0 868.9
09 21.08 З 2 10 км 3/1 1500 м
[Cu hum Ac trans]
+37.1 -6.6 6 +33 +47 жарко 1003.0 867.5
12 21.08 З 3 10 км 8/4 1350 м
[Cu hum Ac As]
+37.7 -8.8 5 +33 +36 жарко 1002.0 865.6
15 21.08 ЮЗ 3 10 км 9/3 1200 м
[Sc Ac As]
+36.2 -7.6 6 +32 +32 жарко 1002.0 865.2 +36.2 666
18 21.08 З 6 10 км 3/0
[Ac trans]
+31.0 -3.5 11 +28 +28 жарко 1001.4 865.8
21 21.08 штиль 0 10 км 4/0
[Ac trans]
+26.7 -1.9 15 +24 +24 комфорт 1001.2 865.9
00 22.08 В 2 10 км 5/0
[Ac As]
+21.4 -1.6 21 +21 +21 комфорт 1002.5 866.1
03 22.08 В 2 10 км 4/1 1200 м
[Sc diur, vesp Ac trans]
+19.4 -2.7 22 +20 +20 1003.9 866.6 +18.2 666
06 22.08 В 2 10 км ясно +31.2 -4.9 9 +27 +38 жарко 1002.5 866.7
09 22.08 СВ 2 15 км 1/0
[Ac trans]
+38.0 -16.7 3 +33 +51 опасность
солнечного
удара
1001.0 865.7 666
12 22.08 С 2 15 км 3/3 1350 м
[Cu hum]
+38.8 -15.3 3 +34 +41 очень
жарко
1000.4 864.3
15 22.08 штиль 0 15 км 3/3 1350 м
[Cu hum]
+36.2 -14.1 3 +31 +31 жарко 1000.3 863.3 +39.5 666
18 22.08 З 6 10 км ясно +30.6 -1.3 13 +27 +27 жарко 1000.3 864.5
21 22.08 В 3 10 км ясно +24.5 +0.5 21 +23 +23 комфорт 1001.1 865.6
00 23.08 Ю 2 10 км ясно +19.3 -1.4 25 +20 +20 1002.4 865.8
03 23.08 ЮВ 2 10 км ясно +17.2 -1.1 29 +18 +18 1004.5 866.6 +17.2 666

 

Местоположение метеостанции Керманшах (Иран): широта 34.27 долгота 47.12 высота над уровнем моря 1322 м.

В архиве по умолчанию представлена погода в Керманшахе за последнюю неделю. Архивные данные за месяц целиком и за предыдущие месяцы, начиная с января 2011 года, Вы можете получить, выбрав интересующий диапазон дат из раскрывающегося списка и нажав кнопку "Ввод!".


*Определитесь, кто Вы:
робот инопланетянин человек

Внимание! Время в таблицах - всемирное. Для получения местного времени необходимо прибавить поправку, которая равна 3.5 ч.

Смотрите также архив погоды в соседних городах и на ближайших метеорологических станциях:

Погода в Иламе (Иран) (95 км)
Погода в Сенендедже (Иран) (118 км)
Погода в Хамадане (Иран) (144 км)
Погода в Хорремабаде (Иран) (145 км)
Погода в Халабче (Ирак) (149 км)
Погода в Ханакине (Ирак) (155 км)
Погода в Бадре (Ирак) (169 км)
Погода в Али Аль-Гарби (Ирак) (204 км)
Погода в Сулеймании (Ирак) (208 км)
Погода в Секкезе (Иран) (233 км)

Пояснения к столбцам:

Ветер - указаны скорость ветра в м/с - средняя за 10 мин, порывы в срок и между сроками (в фигурных скобках) и направление, откуда дует ветер: С - северный, СВ - северо-восточный, В - восточный, ЮВ - юго-восточный, Ю - южный, ЮЗ - юго-западный, З - западный, СЗ - северо-западный.
Видимость - горизонтальная дальность видимости в метрах или километрах. При видимости от 1 до 10 км при отсутствии осадков обычно наблюдается дымка, при ухудшении видимости до 1 км и менее - туман. В сухую погоду видимость может ухудшаться дымом, пылью или мглою.
Явления - указаны атмосферные явления, наблюдавшиеся в срок или в последний час перед сроком; фигурными скобками обозначены явления, наблюдавшиеся между сроками (за 1-3 часа до срока); квадратными скобками обозначены град или гололедные отложения с указанием их диаметра в мм.
Облачность - указаны через наклонную черту общая и нижняя облачность в баллах и высота нижней границы облаков в метрах; квадратными скобками обозначены формы облаков: Ci - перистые, Cs - перисто-слоистые, Cc - перисто-кучевые, Ac - высококучевые, As - высокослоистые, Sc - слоисто-кучевые, Ns - слоисто-дождевые, Cu - кучевые, Cb - кучево-дождевые. Подробнее классификацию облаков см. в Атласе облаков (PDF).
T - Температура воздуха - температура, измеренная на высоте 2 м над землей.
Td - Температура точки росы - температура, при понижении до которой содержащийся в воздухе водяной пар достигнет насыщения.
f - Относительная влажность воздуха - влажноcть воздуха, измеренная на высоте 2 м над землей.
Te - Эффективная температура - температура, которую ощущает одетый по сезону человек в тени. Характеристика душности погоды. При расчете учитывается влияние влажности воздуха и скорости ветра на теплоощущения человека.
Tes - Эффективная температура на солнце - температура, которую ощущает человек, с поправкой на солнечный нагрев. Характеристика знойности погоды. Зависит от высоты солнца над горизонтом, облачности и скорости ветра. Ночью, в пасмурную погоду, а также при ветре 12 м/с и более поправка равна нулю.
P - Атмосферное давление - приведенное к уровню моря атмосферное давление.
Po - Атмосферное давление - измеренное на уровне метеостанции атмосферное давление.
Tmin - Минимальная температура - минимум температуры воздуха на высоте 2 м над землей.
Tmax - Максимальная температура - максимум температуры воздуха на высоте 2 м над землей.
R - Количество осадков - Количество выпавших осадков за период времени, мм. При наведении курсора мыши на число - период времени, за который выпало указанное количество осадков.
R24 - Количество осадков - Количество выпавших осадков за 24 часа, мм.
S - Снежный покров - Высота снежного покрова, см. При наведении курсора мыши на число - состояние снежного покрова и степень покрытия местности в баллах.